DateTimeUTC,F1_A11,F1_S11,BsB_S11,BsG_S11,BsR_S11,BbsB_S11,BbsG_S11,BbsR_S11,BaB_A11,BaG_A11,BaR_A11,Tu_S11,T_S11,Uu_S11,U_S11,P_S11,T1_A11
2021-07-31T11:00:00Z,00000200,20000000,,,,,,,-000.07,0000.16,-000.13,19.6,26.1,09.9,06.7,0680.0,31.1
2021-07-31T11:01:00Z,00000200,20000000,,,,,,,-000.24,0000.05,0000.14,19.6,26.1,09.9,06.7,0680.0,31.1
2021-07-31T11:02:00Z,00000200,20000000,,,,,,,-000.08,0000.16,0000.01,19.6,26.1,09.9,06.7,0680.0,31.1
2021-07-31T11:03:00Z,00000200,60000000,,,,,,,0001.88,0001.54,0001.17,19.6,26.1,09.9,06.7,0679.9,31.1
2021-07-31T11:04:00Z,00000200,40000000,0009.28,0006.27,0003.91,0000.54,0000.60,0000.82,0002.75,0002.24,0001.81,19.8,26.0,10.1,06.9,0680.9,31.1
2021-07-31T11:05:00Z,00000200,00000000,0008.71,0006.09,0004.08,0001.72,0000.48,0000.86,0001.69,0002.02,0001.51,19.9,25.9,10.1,07.0,0680.9,31.1
2021-07-31T11:06:00Z,00000200,00000000,0008.29,0006.30,0003.66,0001.66,0000.41,0000.82,0002.58,0002.05,0001.65,19.9,26.0,10.1,07.0,0680.9,31.1
2021-07-31T11:07:00Z,00000200,00000000,0008.22,0006.21,0003.77,0001.06,0000.75,0000.35,0002.11,0001.86,0001.01,19.9,25.9,10.2,07.1,0680.9,31.1
2021-07-31T11:08:00Z,00000200,00000000,0009.08,0006.07,0003.77,0001.18,0000.58,0000.69,0002.21,0001.88,0001.84,19.9,25.9,10.3,07.1,0680.9,31.1
2021-07-31T11:09:00Z,00000200,00000000,0007.61,0005.94,0003.67,0001.42,0000.44,0000.61,0001.94,0002.22,0001.66,19.9,26.0,10.3,07.2,0680.9,31.1
2021-07-31T11:10:00Z,00000200,00000000,0008.36,0005.60,0003.33,0000.92,0000.65,0000.43,0001.94,0001.76,0001.23,19.9,26.0,10.3,07.2,0680.9,31.1
2021-07-31T11:11:00Z,00000200,00000000,0008.52,0006.30,0003.69,0001.41,0000.76,0000.70,0002.07,0001.90,0001.35,20.0,26.0,10.3,07.1,0680.9,31.1
2021-07-31T11:12:00Z,00000200,00000000,0008.56,0005.95,0003.99,0000.74,0000.71,0000.76,0001.85,0001.62,0001.22,20.0,26.0,10.3,07.2,0680.9,31.1
2021-07-31T11:13:00Z,00000200,00000000,0008.63,0005.83,0003.53,0000.88,0000.82,0000.52,0002.22,0002.00,0001.24,20.0,26.0,10.3,07.2,0680.9,31.1
2021-07-31T11:14:00Z,00000200,00000000,0007.39,0005.19,0003.29,0001.01,0000.31,0000.22,0001.48,0000.87,0000.93,19.8,25.9,10.5,07.3,0680.9,30.9
2021-07-31T11:15:00Z,00000200,00000000,0008.09,0005.31,0003.44,0000.99,0000.44,0000.35,0001.86,0001.94,0001.22,19.6,25.8,10.6,07.3,0680.9,30.8
2021-07-31T11:16:00Z,00000200,00000000,0007.95,0005.60,0003.56,0000.93,0000.51,0000.76,0002.19,0001.82,0001.17,19.4,25.6,10.7,07.3,0680.9,30.7
2021-07-31T11:17:00Z,00000200,00000000,0008.60,0005.91,0003.29,0001.13,0000.97,0000.63,0001.93,0001.87,0001.82,19.2,25.5,10.7,07.3,0680.9,30.6
2021-07-31T11:18:00Z,00000200,00000000,0008.67,0005.77,0003.14,0000.72,0000.49,0000.70,0002.20,0002.11,0001.47,19.0,25.4,10.9,07.4,0681.0,30.6
2021-07-31T11:19:00Z,00000200,00000000,0008.35,0005.85,0003.65,0001.06,0000.45,0000.62,0002.29,0002.01,0001.85,18.9,25.3,11.0,07.5,0681.0,30.7
2021-07-31T11:20:00Z,00000200,00000000,0007.70,0005.32,0003.32,0001.09,0000.64,0000.41,0001.81,0002.06,0001.32,18.9,25.3,11.1,07.5,0681.0,30.8
2021-07-31T11:21:00Z,00000200,00000000,0007.00,0005.46,0003.57,0001.33,0000.44,0000.57,0002.38,0001.38,0001.11,18.9,25.4,11.2,07.6,0680.9,30.8
2021-07-31T11:22:00Z,00000200,00000000,0008.43,0005.57,0003.41,0001.06,0000.36,0000.71,0001.98,0002.39,0001.70,19.0,25.4,11.3,07.7,0680.9,30.9
2021-07-31T11:23:00Z,00000200,00000000,0006.86,0004.51,0002.68,0000.92,0000.38,0000.49,0001.75,0001.11,0001.69,19.0,25.4,11.4,07.7,0680.9,30.9
2021-07-31T11:24:00Z,00000200,00000000,0007.18,0005.25,0003.11,0000.95,0000.58,0000.28,0001.69,0001.90,0000.98,19.1,25.5,11.4,07.8,0680.9,31.0
2021-07-31T11:25:00Z,00000200,00000000,0006.92,0005.22,0003.15,0001.19,0000.40,0000.48,0001.98,0002.01,0001.42,19.2,25.5,11.3,07.7,0680.9,31.0
2021-07-31T11:26:00Z,00000200,00000000,0006.82,0004.60,0002.53,0001.52,0000.73,0000.56,0001.49,0001.47,0001.19,19.2,25.5,11.3,07.7,0680.9,31.0
2021-07-31T11:27:00Z,00000200,00000000,0005.54,0005.40,0003.02,0001.46,0000.50,0000.74,0002.20,0001.65,0001.05,19.2,25.5,11.3,07.7,0680.9,31.0
2021-07-31T11:28:00Z,00000200,00000000,0007.85,0005.40,0003.13,0001.29,0000.74,0000.73,0001.55,0001.40,0001.33,19.3,25.6,11.3,07.7,0680.9,31.0
2021-07-31T11:29:00Z,00000200,00000000,0006.79,0004.92,0002.80,0001.02,0000.29,0000.13,0002.09,0001.92,0001.26,19.3,25.6,11.4,07.8,0680.9,31.0
2021-07-31T11:30:00Z,00000200,00000000,0005.70,0004.15,0002.71,0000.54,0000.40,0000.54,0001.62,0001.68,0001.20,19.4,25.6,11.5,07.9,0680.9,31.0
2021-07-31T11:31:00Z,00000200,00000000,0006.25,0004.10,0002.57,0001.28,0000.21,0000.08,0001.55,0001.17,0001.13,19.4,25.6,11.4,07.8,0680.9,31.0
2021-07-31T11:32:00Z,00000200,00000000,0006.86,0004.49,0002.62,0000.65,0000.15,0000.48,0001.24,0001.21,0001.00,19.4,25.6,11.3,07.8,0680.9,31.1
2021-07-31T11:33:00Z,00000200,00000000,0006.82,0004.39,0002.61,0000.65,0000.42,0000.64,0001.97,0001.73,0000.97,19.4,25.6,11.3,07.8,0680.9,31.0
2021-07-31T11:34:00Z,00000200,00000000,0006.61,0005.03,0003.01,0001.69,0000.57,0000.65,0001.80,0001.46,0001.74,19.5,25.6,11.3,07.8,0680.9,31.1
2021-07-31T11:35:00Z,00000200,00000000,0006.37,0004.32,0002.64,0000.96,0000.75,0000.24,0001.72,0001.87,0000.64,19.5,25.6,11.4,07.8,0680.8,31.1
2021-07-31T11:36:00Z,00000200,00000000,0005.42,0003.70,0002.37,0000.66,0000.33,0000.42,0001.56,0001.19,0001.12,19.5,25.6,11.5,07.9,0680.8,31.1
2021-07-31T11:37:00Z,00000200,00000000,0006.06,0003.75,0002.59,0000.91,0000.23,0000.44,0001.35,0001.46,0001.20,19.5,25.6,11.4,07.9,0680.9,31.1
2021-07-31T11:38:00Z,00000200,00000000,0006.98,0004.83,0002.92,0001.16,0000.49,0000.54,0001.78,0001.47,0001.09,19.6,25.7,11.4,07.9,0680.9,31.1
2021-07-31T11:39:00Z,00000200,00000000,0007.82,0004.86,0003.01,0000.75,0000.70,0000.47,0001.74,0001.67,0001.37,19.6,25.7,11.3,07.8,0680.9,31.1
2021-07-31T11:40:00Z,00000200,00000000,0006.76,0004.90,0002.83,0001.18,0000.46,0000.63,0001.84,0001.68,0001.17,19.6,25.7,11.3,07.8,0680.9,31.1
2021-07-31T11:41:00Z,00000200,00000000,0006.02,0004.51,0002.41,0000.75,0000.47,0000.71,0001.86,0001.62,0000.89,19.6,25.7,11.3,07.8,0680.9,31.1
2021-07-31T11:42:00Z,00000200,00000000,0005.79,0003.65,0002.23,0000.62,0000.54,0000.30,0001.48,0001.64,0001.53,19.7,25.7,11.5,07.9,0680.9,31.1
2021-07-31T11:43:00Z,00000200,00000000,0006.24,0004.30,0002.59,0001.20,0000.18,0000.66,0001.59,0001.09,0000.75,19.7,25.8,11.4,07.9,0680.9,31.1
2021-07-31T11:44:00Z,00000200,00000000,0006.16,0004.15,0002.84,0001.01,0000.52,0000.33,0001.46,0001.42,0001.13,19.7,25.8,11.5,07.9,0680.9,31.1
2021-07-31T11:45:00Z,00000200,00000000,0005.94,0004.35,0002.35,0000.57,0000.50,0000.60,0001.65,0001.68,0001.40,19.7,25.8,11.4,07.9,0680.9,31.1
2021-07-31T11:46:00Z,00000200,00000000,0005.89,0003.84,0002.38,0001.02,0000.44,0000.12,0001.85,0001.39,0001.17,19.8,25.8,11.4,07.9,0680.9,31.1
2021-07-31T11:47:00Z,00000200,00000000,0005.54,0004.21,0002.79,0001.21,0000.50,0000.81,0001.64,0001.64,0001.09,19.8,25.8,11.4,07.9,0680.9,31.1
2021-07-31T11:48:00Z,00000200,00000000,0004.73,0003.72,0002.32,0001.54,0000.39,0000.45,0001.58,0001.42,0001.00,19.8,25.9,11.5,08.0,0680.9,31.1
2021-07-31T11:49:00Z,00000200,00000000,0006.35,0004.25,0002.43,0000.24,0000.34,0000.54,0001.64,0001.55,0001.47,19.8,25.9,11.4,07.9,0680.9,31.1
2021-07-31T11:50:00Z,00000200,00000000,0006.26,0004.49,0002.66,0001.39,0000.49,0000.39,0001.37,0001.16,0000.93,19.8,25.9,11.3,07.9,0680.9,31.1
2021-07-31T11:51:00Z,00000200,00000000,0006.94,0004.56,0002.67,0000.64,0000.51,0000.52,0001.88,0001.59,0001.06,19.9,25.9,11.4,07.9,0680.9,31.1
2021-07-31T11:52:00Z,00000200,00000000,0007.84,0004.89,0003.14,0001.11,0000.54,0000.55,0002.01,0001.88,0001.02,19.9,25.9,11.5,07.9,0680.9,31.1
2021-07-31T11:53:00Z,00000200,00000000,0007.44,0004.99,0002.81,0000.80,0000.49,0000.50,0002.06,0002.20,0001.83,19.9,25.9,11.3,07.9,0680.9,31.1
2021-07-31T11:54:00Z,00000200,00000000,0006.51,0004.74,0002.98,0001.18,0000.64,0000.40,0001.92,0001.56,0001.23,20.0,26.0,11.4,07.9,0680.9,31.2
2021-07-31T11:55:00Z,00000200,00000000,0006.40,0004.53,0003.05,0001.27,0000.37,0000.54,0001.73,0001.94,0001.38,20.0,26.0,11.5,08.0,0680.9,31.1
2021-07-31T11:56:00Z,00000200,00000000,0007.11,0005.11,0002.57,0001.16,0000.69,0000.30,0002.05,0001.26,0001.45,20.0,26.0,11.4,08.0,0680.9,31.1
2021-07-31T11:57:00Z,00000200,40000000,,,,,,,0000.36,0000.35,-000.33,20.1,26.0,11.9,08.3,0681.0,31.1
2021-07-31T11:58:00Z,00000200,60000000,,,,,,,-000.32,-000.05,0000.55,19.9,26.1,11.3,07.7,0679.9,31.1
2021-07-31T11:59:00Z,00000200,20000000,,,,,,,0000.25,0000.27,-000.09,19.9,26.2,11.3,07.7,0679.9,31.2
